Weather History for Cleveland, OH

Change the Weather History Date:

Saturday, January 4, 2014

  Actual Average Record
Temperature  
Mean Temperature 24 °F 28 °F  
Max Temperature 34 °F 35 °F 65 °F (1997)
Min Temperature 13 °F 22 °F -7 °F (1879)
Degree Days  
Heating Degree Days 41 37  
Month to date heating degree days 182 147  
Since 1 July heating degree days 2346 2254  
Cooling Degree Days 0 0  
Month to date cooling degree days 0 0  
Year to date cooling degree days 0 0  
Moisture  
Dew Point 9 °F    
Average Humidity 53    
Maximum Humidity 64    
Minimum Humidity 41    
Precipitation  
Precipitation 0.00 in 0.10 in 1.03 in (1993)
Month to date precipitation 0.45 0.40  
Year to date precipitation 0.45 0.40  
Snow  
Snow 0.00 in 0.50 in - ()
Month to date snowfall 8.1 2.3  
Since 1 July snowfall 30.3 20.9  
Snow Depth 7.00 in    
Sea Level Pressure  
Sea Level Pressure 30.14 in    
Wind  
Wind Speed 15 mph (South)    
Max Wind Speed 25 mph    
Max Gust Speed 36 mph    
Visibility 10 miles    
Events      
T = Trace of Precipitation, MM = Missing Value Source: NWS Daily Summary

Daily Weather History Graph

Daily Weather History Graph

Search for Another Location

Airport:

Trip Planner

Search our weather history database for the weather conditions in past years. The results will help you decide how hot, cold, wet, or windy it might be!

Date:

Astronomy

Jan. 04, 2014 Rise Set
Actual Time 7:53 AM EST 5:11 PM EST
Civil Twilight 7:22 AM EST 5:42 PM EST
Nautical Twilight 6:48 AM EST 6:17 PM EST
Astronomical Twilight 6:14 AM EST 6:50 PM EST
Moon 9:55 AM EST (1/4) 9:32 PM EST (1/4)
Length of Visible Light 10h 19m
Length of Day
9h 17m
Waxing Crescent, 15% of the Moon is Illuminated
Jan 4
Waxing Crescent
Jan 7
First Quarter
Jan 15
Full
Jan 24
Last Quarter
Jan 30
New

Hourly Weather History & Observations

Time (EST) Temp. Windchill Dew Point Humidity Pressure Visibility Wind Dir Wind Speed Gust Speed Precip Events Conditions
12:51 AM 12.9 °F -0.9 °F -0.0 °F 56% 30.29 in 10.0 mi South 11.5 mph - N/A   Clear
1:51 AM 12.9 °F -2.2 °F 1.9 °F 62% 30.27 in 10.0 mi South 13.8 mph 23.0 mph N/A   Partly Cloudy
2:51 AM 14.0 °F -3.4 °F 3.0 °F 62% 30.25 in 10.0 mi South 19.6 mph 26.5 mph N/A   Mostly Cloudy
3:51 AM 15.1 °F -0.6 °F 3.0 °F 59% 30.24 in 10.0 mi South 16.1 mph - N/A   Partly Cloudy
4:51 AM 15.1 °F -1.1 °F 3.0 °F 59% 30.21 in 10.0 mi South 17.3 mph - N/A   Scattered Clouds
5:51 AM 16.0 °F 0.6 °F 3.0 °F 57% 30.19 in 10.0 mi South 16.1 mph 25.3 mph N/A   Scattered Clouds
6:51 AM 18.0 °F 2.6 °F 3.0 °F 52% 30.17 in 10.0 mi South 17.3 mph 26.5 mph N/A   Scattered Clouds
7:51 AM 19.0 °F 2.4 °F 5.0 °F 54% 30.16 in 6.0 mi South 21.9 mph 32.2 mph N/A   Haze
8:51 AM 19.9 °F 4.3 °F 5.0 °F 52% 30.16 in 5.0 mi SSW 19.6 mph 32.2 mph N/A   Haze
9:51 AM 21.9 °F 6.9 °F 6.1 °F 51% 30.12 in 10.0 mi South 19.6 mph 25.3 mph N/A   Clear
10:51 AM 27.0 °F 13.5 °F 8.1 °F 45% 30.11 in 8.0 mi South 19.6 mph 31.1 mph N/A   Scattered Clouds
11:51 AM 28.0 °F 14.9 °F 9.0 °F 45% 30.09 in 10.0 mi South 19.6 mph 27.6 mph N/A   Mostly Cloudy
12:51 PM 30.0 °F 19.1 °F 10.9 °F 45% 30.07 in 10.0 mi South 15.0 mph 28.8 mph N/A   Clear
12:55 PM 30.0 °F 18.3 °F 10.9 °F 45% 30.04 in 10.0 mi SSW 17.3 mph 25.3 mph N/A   Mostly Cloudy
1:51 PM 32.0 °F 20.5 °F 12.0 °F 44% 30.07 in 10.0 mi SSW 18.4 mph 26.5 mph N/A   Mostly Cloudy
2:51 PM 33.1 °F 22.6 °F 12.0 °F 42% 30.06 in 10.0 mi South 16.1 mph 27.6 mph N/A   Mostly Cloudy
3:51 PM 34.0 °F 22.7 °F 12.9 °F 42% 30.08 in 10.0 mi SSW 19.6 mph 26.5 mph N/A   Mostly Cloudy
4:51 PM 33.1 °F 24.4 °F 12.9 °F 43% 30.09 in 10.0 mi South 11.5 mph 19.6 mph N/A   Scattered Clouds
5:51 PM 33.1 °F 24.4 °F 12.9 °F 43% 30.09 in 10.0 mi South 11.5 mph - N/A   Mostly Cloudy
6:51 PM 34.0 °F 24.2 °F 14.0 °F 44% 30.09 in 10.0 mi South 15.0 mph - N/A   Overcast
7:51 PM 34.0 °F 26.0 °F 14.0 °F 44% 30.10 in 10.0 mi South 10.4 mph - N/A   Overcast
8:51 PM 34.0 °F 26.6 °F 14.0 °F 44% 30.11 in 10.0 mi South 9.2 mph - N/A   Overcast
9:51 PM 34.0 °F 26.6 °F 15.1 °F 46% 30.11 in 10.0 mi South 9.2 mph - N/A   Overcast
10:51 PM 34.0 °F 28.0 °F 16.0 °F 48% 30.12 in 10.0 mi South 6.9 mph - N/A   Overcast
11:51 PM 34.0 °F 26.0 °F 17.1 °F 50% 30.11 in 10.0 mi South 10.4 mph - N/A   Overcast